Location: Oberkirch
(48.5323°N, 8.0787°E)
Time: 01:07:25
(UTC+00:00)

CUTE 1.7 + AOD 2 - Pass Details

Date: 21 March 2026
Orbit: 535 x 545 km, 97.8° (Epoch: 14 April)

Event Time Altitude Azimuth Distance (km) Brightness Sun altitude
Rises 03:28:12 0° 20° (NNE) 2,723 ? -20.2°
Reaches altitude 10° 03:30:27 10° 28° (NNE) 1,825 ? -19.8°
Maximum altitude 03:34:09 38° 98° (E) 847 ? -19.3°
Drops below altitude 10° 03:37:49 10° 167° (SSE) 1,811 ? -18.7°
Enters shadow 03:39:13 - 173° (S) 2,363 ? -18.5°
